GROUP/SHIP,CRUISE_DESIGNATION,JD_GMT,DATE_DDMMYYYY,TIME_HH:MM:SS,LAT_DEC_DEGREE,LONG_DEC_DEGREE,xCO2W_PPM,xCO2A_PPM,PRES_EQUIL_hPa,PRES_SEALEVEL_hPa,EqTEMP_C,SST(TSG)_C,SAL(TSG)_PERMIL,WATER_FLOW_L/MIN,GAS_FLOW_IR_ML/MIN,TEMP_IR_C,PRES_IR_hPa,SHIP_HEADING_TRUE_DEGREE,SHIP_SPEED_KNOT,WIND_DIR_REL_DEGREE,WIND_SPEED_REL_M/S,fCO2W@SST_uATM,QC_FLAG_WATER,fCO2A_uATM,QC_FLAG_AIR,dfCO2_uATM,FLUORO_uG/L,WIND_SPEED_TRUE_M/S,WIND_DIR_TRUE_DEGREE,AIR_TEMP_C
AOML_Brown,RB200703,125.800,05052007,19:11:45,12.004,-45.489,-999.99,-999.99,1010.93,1011.59,27.26,27.17,36.24,10.15,312.39,32.57,1010.93,93.50,11.60,0.30,11.39,-999.99,4,-999.99,4,-999.99,0.75,5.22,93.26,25.67
AOML_Brown,RB200703,125.803,05052007,19:16:25,12.003,-45.474,-999.99,-999.99,1010.87,1011.55,27.25,27.16,36.24,10.66,309.00,32.78,1010.87,93.70,11.40,354.00,10.78,-999.99,4,-999.99,4,-999.99,0.75,4.91,78.91,25.70
AOML_Brown,RB200703,125.806,05052007,19:20:45,12.003,-45.460,-999.99,-999.99,1010.87,1011.55,27.27,27.15,36.24,10.89,302.69,32.97,1010.87,94.50,11.70,353.20,10.78,-999.99,4,-999.99,4,-999.99,0.74,4.80,76.27,25.70
AOML_Brown,RB200703,125.809,05052007,19:25:25,12.001,-45.444,-999.99,-999.99,1010.69,1011.58,27.24,27.15,36.24,10.85,299.67,33.14,1010.69,93.40,11.80,358.50,11.09,-999.99,4,-999.99,4,-999.99,0.76,4.92,88.62,25.65
AOML_Brown,RB200703,125.821,05052007,19:41:45,11.998,-45.390,-999.99,-999.99,1010.83,1011.53,27.21,27.14,36.25,10.53,286.74,33.27,1010.83,94.00,11.70,353.50,11.39,-999.99,4,-999.99,4,-999.99,0.75,5.39,79.92,25.48
AOML_Brown,RB200703,125.824,05052007,19:46:25,11.997,-45.375,-999.99,-999.99,1010.72,1011.46,27.19,27.11,36.25,10.64,292.16,33.08,1010.72,94.40,11.90,4.70,10.69,-999.99,4,-999.99,4,-999.99,0.75,4.58,101.34,25.58
AOML_Brown,RB200703,125.827,05052007,19:50:45,11.996,-45.360,-999.99,-999.99,1010.86,1011.42,27.21,27.09,36.26,10.83,289.29,33.02,1010.86,93.00,11.70,359.60,12.18,-999.99,4,-999.99,4,-999.99,0.76,6.01,91.26,25.62
AOML_Brown,RB200703,125.830,05052007,19:55:25,11.995,-45.345,-999.99,-999.99,1010.79,1011.52,27.23,27.11,36.28,10.62,285.35,33.07,1010.79,93.80,11.40,9.30,12.68,-999.99,4,-999.99,4,-999.99,0.76,6.81,108.75,25.58
AOML_Brown,RB200703,125.841,05052007,20:11:45,11.991,-45.291,399.18,386.41,1010.78,1011.49,27.22,27.11,36.28,10.36,277.16,33.54,1010.78,94.20,11.70,6.40,13.98,381.30,2,371.23,2,10.06,0.73,8.03,103.65,25.77
AOML_Brown,RB200703,125.845,05052007,20:16:25,11.990,-45.275,398.84,386.41,1010.63,1011.37,27.21,27.10,36.28,10.55,283.50,33.50,1010.63,94.30,11.90,2.10,13.49,380.77,2,371.23,2,9.54,0.74,7.67,95.96,25.77
AOML_Brown,RB200703,125.848,05052007,20:20:45,11.989,-45.261,398.58,386.41,1010.92,1011.45,27.21,27.09,36.28,10.41,286.01,33.27,1010.92,93.70,11.30,1.00,12.79,380.65,2,371.23,2,9.41,0.75,7.03,92.43,25.80
AOML_Brown,RB200703,125.851,05052007,20:25:25,11.988,-45.245,398.86,386.41,1010.76,1011.51,27.18,27.08,36.28,9.95,286.22,33.11,1010.76,93.80,11.70,2.80,12.68,381.18,2,371.23,2,9.94,0.74,7.17,98.98,25.72
AOML_Brown,RB200703,125.862,05052007,20:41:45,11.985,-45.192,396.61,386.41,1010.87,1011.53,27.15,27.04,36.28,10.43,273.60,33.39,1010.87,92.60,11.60,355.50,12.29,378.91,2,371.23,2,7.68,0.74,6.38,81.91,25.72
AOML_Brown,RB200703,125.866,05052007,20:46:25,11.984,-45.176,396.12,386.41,1010.79,1011.58,27.14,27.03,36.28,10.88,282.22,33.51,1010.79,93.70,11.80,356.90,12.18,378.41,2,371.23,2,7.18,0.74,6.15,84.86,25.75
AOML_Brown,RB200703,125.869,05052007,20:50:45,11.983,-45.162,395.51,386.41,1011.01,1011.37,27.12,27.02,36.29,10.59,283.70,33.61,1011.01,94.70,11.60,355.50,12.29,378.12,2,371.23,2,6.88,0.74,6.55,86.17,25.67
AOML_Brown,RB200703,125.872,05052007,20:55:25,11.982,-45.147,394.98,386.41,1010.96,1011.57,27.13,27.01,36.29,10.66,286.09,33.50,1010.96,93.70,11.60,355.90,12.49,377.28,2,371.23,2,6.04,0.75,6.56,84.53,25.60
AOML_Brown,RB200703,125.883,05052007,21:11:45,11.978,-45.093,391.89,385.97,1011.08,1011.52,27.05,26.93,36.29,10.36,269.34,33.21,1011.08,93.10,11.60,358.10,12.38,374.43,2,371.04,2,3.39,0.76,6.49,87.51,25.58
AOML_Brown,RB200703,125.886,05052007,21:16:25,11.977,-45.078,390.70,385.97,1010.91,1011.61,27.01,26.91,36.29,10.55,277.38,33.33,1010.91,93.00,11.70,350.30,12.49,373.45,2,371.04,2,2.41,0.76,6.66,73.53,25.40
AOML_Brown,RB200703,125.889,05052007,21:20:45,11.976,-45.063,389.47,385.97,1011.10,1011.63,27.01,26.90,36.30,10.79,277.66,33.44,1011.10,92.60,11.60,358.10,11.98,372.42,2,371.04,2,1.37,0.78,6.25,85.51,25.35
AOML_Brown,RB200703,125.893,05052007,21:25:25,11.975,-45.048,388.70,385.97,1011.11,1011.67,27.03,26.91,36.31,10.05,279.58,33.55,1011.11,93.00,11.80,347.80,13.49,371.44,2,371.04,2,0.40,0.78,7.84,69.03,25.53
AOML_Brown,RB200703,125.904,05052007,21:41:45,11.972,-44.994,387.06,385.97,1011.46,1011.87,26.95,26.83,36.30,10.42,265.61,33.32,1011.46,93.10,11.60,354.50,13.38,370.07,2,371.04,2,-0.97,0.76,7.36,79.62,25.38
AOML_Brown,RB200703,125.907,05052007,21:46:25,11.971,-44.979,387.08,385.97,1011.40,1012.04,26.92,26.80,36.30,10.43,272.15,33.17,1011.40,93.70,11.70,352.10,12.18,370.16,2,371.04,2,-0.89,0.75,6.24,74.69,25.38
AOML_Brown,RB200703,125.910,05052007,21:50:45,11.970,-44.964,386.95,385.97,1011.55,1011.88,26.89,26.78,36.30,10.41,275.26,33.16,1011.55,94.80,11.70,350.30,13.68,370.20,2,371.04,2,-0.84,0.74,7.83,73.83,25.25
AOML_Brown,RB200703,125.913,05052007,21:55:25,11.969,-44.949,386.65,385.97,1011.82,1012.15,26.87,26.76,36.29,9.89,275.60,33.24,1011.82,93.90,11.80,2.40,12.29,369.87,2,371.04,2,-1.17,0.74,6.48,87.82,25.30
AOML_Brown,RB200703,125.925,05052007,22:11:45,11.965,-44.894,384.37,386.87,1011.70,1012.19,26.81,26.71,36.29,10.63,260.95,33.63,1011.70,94.60,12.00,352.40,12.99,367.81,2,372.29,2,-4.47,0.74,7.37,75.89,25.40
AOML_Brown,RB200703,125.928,05052007,22:16:25,11.964,-44.878,383.94,386.87,1011.65,1012.30,26.81,26.70,36.29,10.40,268.19,33.50,1011.65,93.60,12.10,346.10,12.58,367.26,2,372.29,2,-5.03,0.73,6.71,65.18,25.25
AOML_Brown,RB200703,125.931,05052007,22:20:45,11.963,-44.863,383.67,386.87,1011.70,1012.25,26.80,26.68,36.29,10.62,273.65,33.26,1011.70,94.00,11.80,351.90,13.49,366.97,2,372.29,2,-5.32,0.74,7.57,75.73,25.40
AOML_Brown,RB200703,125.934,05052007,22:25:25,11.962,-44.848,383.35,386.87,1011.93,1012.35,26.78,26.67,36.29,10.60,275.13,33.12,1011.93,93.80,12.00,352.90,12.58,366.87,2,372.29,2,-5.42,0.74,6.68,75.69,25.35
AOML_Brown,RB200703,125.946,05052007,22:41:45,11.958,-44.792,381.27,386.87,1011.93,1012.47,26.77,26.66,36.32,10.55,263.32,33.40,1011.93,93.80,11.90,350.60,11.48,364.84,2,372.29,2,-7.44,0.77,5.67,70.17,25.30
AOML_Brown,RB200703,125.949,05052007,22:46:25,11.957,-44.776,380.84,386.87,1011.86,1012.48,26.77,26.66,36.32,10.34,270.44,33.52,1011.86,94.50,12.20,347.90,12.99,364.49,2,372.29,2,-7.80,0.77,7.16,66.19,25.38
AOML_Brown,RB200703,125.952,05052007,22:50:45,11.956,-44.762,380.48,386.87,1011.98,1012.42,26.76,26.64,36.32,10.84,267.44,33.62,1011.98,93.70,11.80,347.40,12.68,364.10,2,372.29,2,-8.18,0.76,6.94,64.78,25.38
AOML_Brown,RB200703,125.955,05052007,22:55:25,11.955,-44.746,379.94,386.87,1012.20,1012.58,26.75,26.62,36.32,10.39,272.09,33.65,1012.20,94.40,11.80,356.80,12.58,363.55,2,372.29,2,-8.73,0.78,6.68,82.76,25.40
AOML_Brown,RB200703,125.966,05052007,23:11:45,11.952,-44.691,379.15,385.48,1012.27,1012.82,26.73,26.62,36.36,9.91,259.04,33.14,1012.27,93.70,11.70,347.20,11.79,363.05,2,371.18,2,-8.13,0.78,6.19,63.53,25.40
AOML_Brown,RB200703,125.970,05052007,23:16:25,11.951,-44.676,378.79,385.48,1012.19,1012.71,26.68,26.59,36.36,10.31,265.95,33.22,1012.19,94.10,11.70,357.10,12.29,362.99,2,371.18,2,-8.20,0.78,6.04,84.88,25.40
AOML_Brown,RB200703,125.973,05052007,23:20:45,11.950,-44.661,378.45,385.48,1012.28,1012.76,26.68,26.57,36.36,10.51,266.96,33.33,1012.28,95.50,11.40,355.70,13.28,362.52,2,371.18,2,-8.67,0.79,7.25,84.77,25.25
AOML_Brown,RB200703,125.976,05052007,23:25:25,11.949,-44.645,378.41,385.48,1012.20,1012.70,26.68,26.55,36.37,10.51,267.03,33.43,1012.20,94.30,11.80,355.60,13.08,362.12,2,371.18,2,-9.06,0.80,7.01,76.55,25.40
AOML_Brown,RB200703,125.987,05052007,23:41:45,11.945,-44.590,378.66,385.48,1012.48,1012.90,26.60,26.46,36.38,10.79,258.66,33.45,1012.48,94.10,12.10,350.10,13.28,362.45,2,371.18,2,-8.74,0.76,7.25,73.48,25.38
AOML_Brown,RB200703,125.991,05052007,23:46:25,11.944,-44.574,379.46,385.48,1012.50,1013.01,26.53,26.42,36.38,10.62,263.78,33.21,1012.50,93.20,11.90,350.80,13.18,363.76,2,371.18,2,-7.43,0.75,7.25,72.89,25.43
AOML_Brown,RB200703,125.994,05052007,23:50:45,11.943,-44.559,379.76,385.48,1012.42,1012.89,26.49,26.40,36.39,10.51,269.32,33.09,1012.42,94.90,12.00,344.90,13.08,364.12,2,371.18,2,-7.06,0.76,7.41,63.82,25.40
AOML_Brown,RB200703,125.997,05052007,23:55:25,11.942,-44.543,379.73,385.48,1012.52,1012.85,26.52,26.39,36.39,10.46,267.95,33.10,1012.52,94.50,12.30,354.50,13.58,363.64,2,371.18,2,-7.54,0.77,7.38,77.80,25.40
AOML_Brown,RB200703,126.008,06052007,00:11:44,11.938,-44.487,378.46,386.34,1012.61,1012.98,26.44,26.31,36.41,10.77,260.39,33.45,1012.61,93.60,12.00,348.80,12.18,362.48,2,372.50,2,-10.03,0.79,6.29,69.03,25.35
AOML_Brown,RB200703,126.011,06052007,00:16:25,11.937,-44.471,378.19,386.34,1012.70,1013.06,26.41,26.30,36.41,10.05,265.23,33.55,1012.70,93.80,12.30,346.50,12.88,362.47,2,372.50,2,-10.04,0.78,6.98,64.02,25.38
AOML_Brown,RB200703,126.014,06052007,00:20:45,11.936,-44.457,378.23,386.34,1012.68,1013.27,26.40,26.28,36.42,10.50,269.74,33.62,1012.68,94.50,12.10,356.80,13.18,362.33,2,372.50,2,-10.17,0.78,7.09,84.75,25.38
AOML_Brown,RB200703,126.018,06052007,00:25:25,11.935,-44.441,378.64,386.34,1012.75,1013.21,26.37,26.24,36.42,10.13,265.06,33.56,1012.75,94.00,12.00,351.70,13.08,362.75,2,372.50,2,-9.75,0.79,7.11,73.58,25.40
AOML_Brown,RB200703,126.029,06052007,00:41:45,11.931,-44.386,383.59,386.34,1012.95,1013.44,26.21,26.07,36.41,10.57,255.91,33.12,1012.95,93.90,11.80,353.50,12.88,367.56,2,372.50,2,-4.94,0.77,6.81,77.21,25.40
AOML_Brown,RB200703,126.032,06052007,00:46:25,11.930,-44.370,384.56,386.34,1012.97,1013.55,26.16,26.04,36.40,10.66,265.91,33.22,1012.97,93.60,11.70,0.70,13.78,368.70,2,372.50,2,-3.81,0.78,7.16,94.73,25.45
AOML_Brown,RB200703,126.035,06052007,00:50:45,11.929,-44.356,384.54,386.34,1013.10,1013.58,26.15,26.01,36.40,10.59,265.42,33.32,1013.10,94.40,11.80,348.00,12.29,368.59,2,372.50,2,-3.91,0.77,6.55,69.16,25.20
AOML_Brown,RB200703,126.038,06052007,00:55:25,11.928,-44.340,384.18,386.34,1013.03,1013.66,26.14,26.00,36.40,10.45,268.86,33.42,1013.03,94.70,11.80,345.40,11.59,368.17,2,372.50,2,-4.33,0.78,6.04,59.60,25.25
AOML_Brown,RB200703,126.050,06052007,01:11:45,11.925,-44.286,381.80,386.95,1012.96,1013.58,26.12,26.00,36.41,10.79,256.71,33.52,1012.96,93.40,12.10,353.20,12.79,366.18,2,373.40,2,-7.22,0.78,6.60,85.37,25.28
AOML_Brown,RB200703,126.053,06052007,01:16:25,11.924,-44.270,381.44,386.95,1013.15,1013.67,26.13,26.00,36.41,10.75,267.67,33.27,1013.15,94.10,11.80,349.90,13.28,365.75,2,373.40,2,-7.66,0.78,7.48,73.17,25.23
AOML_Brown,RB200703,126.056,06052007,01:20:45,11.923,-44.256,381.50,386.95,1013.27,1013.78,26.14,26.00,36.41,10.48,267.56,33.09,1013.27,94.30,11.90,345.60,12.88,365.69,2,373.40,2,-7.71,0.79,7.11,64.53,25.23
AOML_Brown,RB200703,126.059,06052007,01:25:25,11.922,-44.240,381.91,386.95,1013.26,1013.86,26.11,26.00,36.41,10.58,268.51,33.06,1013.26,93.30,11.90,352.80,12.49,366.53,2,373.40,2,-6.87,0.79,6.52,75.87,25.23
AOML_Brown,RB200703,126.071,06052007,01:41:45,11.918,-44.185,380.02,386.95,1013.13,1013.85,26.12,25.99,36.41,10.21,255.96,33.40,1013.13,93.80,11.70,344.00,11.29,364.31,2,373.40,2,-9.09,0.80,5.84,58.16,25.23
AOML_Brown,RB200703,126.074,06052007,01:46:25,11.917,-44.170,379.71,386.95,1013.18,1013.63,26.11,25.98,36.41,10.59,266.27,33.50,1013.18,93.80,11.80,346.70,13.08,364.19,2,373.40,2,-9.21,0.79,7.40,65.06,25.33
AOML_Brown,RB200703,126.077,06052007,01:50:45,11.916,-44.155,379.73,386.95,1013.20,1013.67,26.12,25.98,36.41,10.21,270.96,33.58,1013.20,94.80,11.80,349.90,12.99,364.04,2,373.40,2,-9.36,0.79,6.91,72.37,25.30
AOML_Brown,RB200703,126.080,06052007,01:55:25,11.915,-44.140,379.37,386.95,1012.99,1013.64,26.09,25.98,36.41,10.79,269.54,33.55,1012.99,93.40,11.90,351.30,11.98,364.01,2,373.40,2,-9.39,0.79,6.04,73.56,25.28
AOML_Brown,RB200703,126.091,06052007,02:11:45,11.912,-44.085,378.88,385.32,1013.17,1013.60,26.07,25.95,36.41,10.78,259.35,33.08,1013.17,94.10,11.60,346.10,12.09,363.45,2,371.74,2,-8.29,0.79,6.46,64.65,25.30
AOML_Brown,RB200703,126.095,06052007,02:16:25,11.911,-44.070,378.34,385.32,1012.93,1013.63,26.06,25.93,36.40,10.70,265.37,33.16,1012.93,94.30,11.70,353.40,11.79,362.83,2,371.74,2,-8.90,0.79,6.07,95.01,25.28
AOML_Brown,RB200703,126.098,06052007,02:20:45,11.910,-44.055,377.91,385.32,1012.94,1013.37,26.05,25.91,36.40,10.94,269.08,33.25,1012.94,92.70,11.90,350.10,13.49,362.22,2,371.74,2,-9.52,0.79,7.52,75.24,25.25
AOML_Brown,RB200703,126.101,06052007,02:25:25,11.909,-44.040,377.69,385.32,1012.91,1013.54,26.01,25.90,36.41,10.23,274.82,33.34,1012.91,93.80,11.70,348.60,12.58,362.37,2,371.74,2,-9.36,0.80,6.79,72.39,25.25
AOML_Brown,RB200703,126.112,06052007,02:41:44,11.905,-43.985,378.99,385.32,1012.69,1013.20,26.03,25.89,36.42,10.77,260.97,33.62,1012.69,93.40,11.80,338.30,12.79,363.14,2,371.74,2,-8.59,0.79,7.72,53.44,25.15
AOML_Brown,RB200703,126.116,06052007,02:46:25,11.904,-43.970,379.41,385.32,1012.54,1013.31,26.04,25.90,36.43,10.56,269.62,33.44,1012.54,93.70,11.60,338.50,11.98,363.54,2,371.74,2,-8.20,0.78,6.85,52.62,25.13
AOML_Brown,RB200703,126.119,06052007,02:50:45,11.903,-43.956,380.04,385.32,1012.54,1013.01,26.04,25.90,36.43,10.84,270.38,33.18,1012.54,93.50,11.80,347.50,14.68,364.07,2,371.74,2,-7.66,0.79,8.84,72.92,25.18
AOML_Brown,RB200703,126.122,06052007,02:55:24,11.902,-43.940,380.38,385.32,1012.63,1012.86,26.03,25.90,36.43,10.66,273.05,33.05,1012.63,93.70,11.20,355.30,14.98,364.54,2,371.74,2,-7.20,0.78,9.29,87.54,24.90
AOML_Brown,RB200703,126.133,06052007,03:11:44,11.898,-43.886,379.49,385.09,1012.30,1012.68,26.01,25.89,36.43,10.56,261.56,33.31,1012.30,93.50,11.80,350.90,13.78,363.77,2,371.26,2,-7.49,0.77,7.92,76.77,25.30
AOML_Brown,RB200703,126.136,06052007,03:16:25,11.897,-43.871,379.09,385.09,1012.32,1012.86,26.02,25.89,36.43,10.53,266.16,33.41,1012.32,93.20,12.00,357.50,14.68,363.21,2,371.26,2,-8.05,0.79,8.48,87.69,25.35
AOML_Brown,RB200703,126.139,06052007,03:20:45,11.896,-43.856,378.91,385.09,1012.24,1012.77,26.00,25.88,36.43,10.56,272.22,33.50,1012.24,93.40,11.60,359.20,14.88,363.18,2,371.26,2,-8.09,0.79,9.22,93.11,25.33
AOML_Brown,RB200703,126.143,06052007,03:25:25,11.895,-43.841,378.82,385.09,1012.08,1012.80,25.99,25.88,36.43,10.60,276.56,33.57,1012.08,92.80,11.80,353.90,15.38,363.18,2,371.26,2,-8.08,0.79,9.46,83.78,25.40
AOML_Brown,RB200703,126.154,06052007,03:41:45,11.892,-43.786,378.48,385.09,1011.96,1012.31,25.97,25.84,36.43,10.46,263.85,33.28,1011.96,93.70,11.60,344.80,14.68,362.64,2,371.26,2,-8.62,0.78,9.21,68.59,25.55
AOML_Brown,RB200703,126.157,06052007,03:46:24,11.891,-43.771,379.45,385.09,1011.95,1012.46,25.94,25.82,36.43,10.39,271.64,33.10,1011.95,94.30,11.90,355.20,12.99,363.67,2,371.26,2,-7.60,0.77,6.44,81.12,25.38
AOML_Brown,RB200703,126.160,06052007,03:50:45,11.890,-43.756,380.24,385.09,1012.13,1012.47,25.92,25.79,36.42,10.65,274.59,33.05,1012.13,94.00,11.80,355.00,12.68,364.34,2,371.26,2,-6.92,0.78,6.66,83.67,25.48
AOML_Brown,RB200703,126.163,06052007,03:55:24,11.889,-43.740,380.90,385.09,1012.00,1012.52,25.88,25.75,36.41,10.28,277.67,33.09,1012.00,93.70,11.90,350.50,11.48,365.05,2,371.26,2,-6.21,0.78,5.61,75.55,25.48
AOML_Brown,RB200703,126.175,06052007,04:11:44,11.885,-43.686,380.81,385.56,1012.04,1012.33,25.78,25.65,36.40,10.77,266.34,33.40,1012.04,93.10,11.80,351.10,14.08,364.93,2,371.70,2,-6.77,0.76,8.17,79.61,25.30
AOML_Brown,RB200703,126.178,06052007,04:16:24,11.884,-43.671,380.65,385.56,1011.83,1012.23,25.74,25.64,36.40,10.57,269.23,33.48,1011.83,93.30,11.70,341.70,13.68,365.20,2,371.70,2,-6.49,0.77,8.20,63.15,25.18
AOML_Brown,RB200703,126.181,06052007,04:20:44,11.883,-43.656,380.38,385.56,1011.85,1012.37,25.75,25.63,36.40,9.99,272.13,33.55,1011.85,94.10,11.90,347.00,12.29,364.64,2,371.70,2,-7.06,0.77,6.60,66.83,25.23
AOML_Brown,RB200703,126.184,06052007,04:25:24,11.882,-43.641,380.31,385.56,1011.69,1012.12,25.71,25.62,36.39,10.70,272.84,33.61,1011.69,93.20,11.60,340.80,14.08,364.99,2,371.70,2,-6.71,0.78,8.71,60.41,25.30
AOML_Brown,RB200703,126.196,06052007,04:41:44,11.879,-43.587,380.04,385.56,1011.74,1012.04,25.74,25.61,36.40,10.55,269.79,33.36,1011.74,93.60,11.60,347.70,14.08,364.06,2,371.70,2,-7.64,0.78,8.46,69.93,25.13
AOML_Brown,RB200703,126.199,06052007,04:46:25,11.878,-43.571,380.92,385.56,1011.73,1012.08,25.75,25.61,36.40,10.57,272.27,33.17,1011.73,93.50,11.60,343.90,13.38,364.84,2,371.70,2,-6.86,0.78,7.93,63.48,25.10
AOML_Brown,RB200703,126.202,06052007,04:50:45,11.877,-43.557,381.15,385.56,1011.70,1011.95,25.73,25.61,36.40,10.43,276.83,33.12,1011.70,93.40,11.60,349.90,13.88,365.34,2,371.70,2,-6.36,0.77,7.47,75.42,25.13
AOML_Brown,RB200703,126.205,06052007,04:55:24,11.876,-43.542,381.06,385.56,1011.63,1011.90,25.74,25.61,36.41,10.43,279.62,33.17,1011.63,94.60,11.60,347.80,13.98,365.14,2,371.70,2,-6.56,0.77,8.21,71.47,25.13
AOML_Brown,RB200703,126.216,06052007,05:11:44,11.872,-43.488,379.59,386.15,1011.40,1011.81,25.72,25.60,36.40,10.63,264.93,33.51,1011.40,93.60,11.30,345.40,13.38,363.75,2,372.09,2,-8.33,0.74,7.84,68.21,25.03
AOML_Brown,RB200703,126.220,06052007,05:16:24,11.871,-43.473,379.18,386.15,1011.30,1011.76,25.72,25.59,36.40,10.65,278.12,33.58,1011.30,93.90,11.70,341.70,12.58,363.20,2,372.09,2,-8.89,0.75,7.21,57.85,25.15
AOML_Brown,RB200703,126.223,06052007,05:20:45,11.870,-43.458,379.14,386.15,1011.28,1011.71,25.69,25.58,36.40,10.42,276.59,33.64,1011.28,93.70,11.80,347.60,13.78,363.42,2,372.09,2,-8.67,0.75,8.03,71.30,25.15
AOML_Brown,RB200703,126.226,06052007,05:25:24,11.869,-43.443,379.04,386.15,1011.23,1011.78,25.71,25.58,36.40,10.32,276.88,33.69,1011.23,93.40,11.90,345.80,12.99,363.00,2,372.09,2,-9.08,0.76,7.32,66.34,25.18
AOML_Brown,RB200703,126.237,06052007,05:41:44,11.865,-43.389,381.15,386.15,1011.14,1011.78,25.72,25.59,36.41,10.45,264.14,33.07,1011.14,93.40,11.80,349.00,11.29,364.99,2,372.09,2,-7.09,0.75,5.49,70.35,24.90
AOML_Brown,RB200703,126.241,06052007,05:46:24,11.864,-43.373,381.51,386.15,1011.14,1011.47,25.70,25.58,36.40,10.21,276.56,33.11,1011.14,93.80,11.80,357.00,13.68,365.58,2,372.09,2,-6.51,0.75,7.72,89.04,25.00
AOML_Brown,RB200703,126.244,06052007,05:50:45,11.863,-43.359,381.51,386.15,1011.10,1011.45,25.72,25.58,36.40,10.69,277.84,33.19,1011.10,93.60,11.40,352.10,13.78,365.11,2,372.09,2,-6.98,0.75,7.85,81.36,25.03
AOML_Brown,RB200703,126.247,06052007,05:55:25,11.862,-43.343,381.20,386.15,1011.09,1011.56,25.70,25.57,36.40,10.30,279.66,33.27,1011.09,94.50,11.80,355.50,13.18,365.10,2,372.09,2,-6.99,0.75,7.15,85.59,25.20
AOML_Brown,RB200703,126.258,06052007,06:11:45,11.859,-43.289,380.49,386.85,1010.98,1011.25,25.69,25.57,36.40,10.01,260.19,33.60,1010.98,93.30,11.40,350.20,13.49,364.56,2,372.64,2,-8.08,0.75,7.85,76.09,25.23
AOML_Brown,RB200703,126.261,06052007,06:16:24,11.858,-43.273,380.24,386.85,1010.78,1011.38,25.70,25.57,36.40,10.86,271.02,33.59,1010.78,93.40,11.80,353.90,13.08,364.12,2,372.64,2,-8.52,0.75,7.02,83.04,25.15
AOML_Brown,RB200703,126.264,06052007,06:20:45,11.857,-43.259,380.24,386.85,1010.69,1011.20,25.68,25.56,36.40,10.64,270.57,33.36,1010.69,93.80,11.80,351.00,14.08,364.14,2,372.64,2,-8.50,0.76,7.54,77.04,25.25
AOML_Brown,RB200703,126.268,06052007,06:25:24,11.856,-43.243,380.38,386.85,1010.84,1011.15,25.71,25.57,36.40,10.71,272.62,33.13,1010.84,94.90,11.90,349.40,14.08,363.95,2,372.64,2,-8.69,0.75,8.27,73.79,25.45
AOML_Brown,RB200703,126.279,06052007,06:41:45,11.852,-43.189,380.15,386.85,1010.82,1011.29,25.72,25.59,36.40,10.50,264.21,33.23,1010.82,93.00,11.70,354.80,13.28,363.89,2,372.64,2,-8.75,0.74,7.22,83.27,25.40
AOML_Brown,RB200703,126.282,06052007,06:46:25,11.851,-43.173,380.17,386.85,1011.05,1011.27,25.72,25.58,36.40,10.56,269.49,33.33,1011.05,94.10,11.90,347.30,13.98,363.98,2,372.64,2,-8.65,0.74,8.06,70.02,25.23
AOML_Brown,RB200703,126.285,06052007,06:50:44,11.850,-43.159,381.64,386.85,1011.00,1011.25,25.74,25.59,36.40,10.53,271.53,33.41,1011.00,93.20,11.50,353.00,13.98,365.08,2,372.64,2,-7.56,0.74,7.96,80.31,25.23
AOML_Brown,RB200703,126.288,06052007,06:55:24,11.849,-43.143,380.72,386.85,1010.92,1011.38,25.73,25.62,36.41,10.47,271.48,33.49,1010.92,94.70,12.00,358.10,12.49,364.71,2,372.64,2,-7.93,0.74,6.39,87.05,25.13
AOML_Brown,RB200703,126.300,06052007,07:11:44,11.846,-43.089,379.65,386.99,1010.95,1011.27,25.76,25.65,36.41,10.44,266.42,33.67,1010.95,93.50,11.90,350.60,15.08,363.78,2,372.72,2,-8.94,0.74,9.10,76.56,25.15
AOML_Brown,RB200703,126.303,06052007,07:16:24,11.845,-43.073,379.78,386.99,1010.79,1011.22,25.78,25.67,36.40,10.41,270.40,33.44,1010.79,94.00,11.90,352.40,12.88,363.76,2,372.72,2,-8.96,0.73,6.98,76.07,25.05
AOML_Brown,RB200703,126.306,06052007,07:20:44,11.844,-43.059,380.21,386.99,1010.81,1011.19,25.78,25.67,36.40,10.45,274.81,33.18,1010.81,93.90,11.80,348.50,14.78,364.28,2,372.72,2,-8.44,0.74,9.06,74.38,25.20
AOML_Brown,RB200703,126.309,06052007,07:25:24,11.843,-43.044,380.99,386.99,1010.77,1011.29,25.79,25.68,36.40,10.85,273.99,33.06,1010.77,93.80,11.80,350.90,13.78,364.99,2,372.72,2,-7.73,0.74,7.30,72.51,25.23
AOML_Brown,RB200703,126.321,06052007,07:41:44,11.839,-42.989,380.52,386.99,1011.07,1011.46,25.80,25.70,36.39,10.69,267.26,33.35,1011.07,92.50,11.90,344.30,13.58,364.65,2,372.72,2,-8.07,0.74,7.77,64.00,25.43
AOML_Brown,RB200703,126.324,06052007,07:46:24,11.838,-42.974,380.63,386.99,1011.17,1011.37,25.82,25.70,36.39,10.32,268.66,33.46,1011.17,93.50,11.90,342.70,13.98,364.61,2,372.72,2,-8.11,0.74,8.35,61.84,25.35
AOML_Brown,RB200703,126.327,06052007,07:50:44,11.837,-42.959,380.66,386.99,1011.18,1011.45,25.83,25.71,36.39,10.71,273.58,33.55,1011.18,94.70,11.70,351.70,13.08,364.60,2,372.72,2,-8.12,0.74,8.73,74.92,25.40
AOML_Brown,RB200703,126.330,06052007,07:55:24,11.836,-42.943,380.70,386.99,1011.10,1011.57,25.81,25.70,36.38,10.51,277.59,33.60,1011.10,94.10,11.90,351.10,12.99,364.88,2,372.72,2,-7.84,0.74,7.02,76.41,25.40
AOML_Brown,RB200703,126.341,06052007,08:11:44,11.832,-42.889,381.61,385.55,1011.39,1011.72,25.80,25.69,36.36,10.51,268.25,33.06,1011.39,92.40,11.90,354.60,13.18,365.73,2,371.52,2,-5.79,0.74,7.19,80.10,25.55
AOML_Brown,RB200703,126.345,06052007,08:16:24,11.831,-42.873,381.97,385.55,1011.20,1011.57,25.78,25.69,36.36,10.62,274.76,33.11,1011.20,93.90,11.60,352.80,13.78,366.28,2,371.52,2,-5.24,0.73,7.87,77.74,25.58
AOML_Brown,RB200703,126.348,06052007,08:20:44,11.830,-42.858,382.17,385.55,1011.22,1011.93,25.80,25.68,36.36,10.89,275.74,33.19,1011.22,92.30,12.10,351.30,13.98,366.11,2,371.52,2,-5.41,0.74,7.91,74.14,25.58
AOML_Brown,RB200703,126.351,06052007,08:25:24,11.829,-42.842,382.10,385.55,1011.18,1011.85,25.79,25.68,36.36,10.88,275.70,33.28,1011.18,93.30,11.70,355.60,13.98,366.15,2,371.52,2,-5.37,0.74,7.99,86.49,25.67
AOML_Brown,RB200703,126.362,06052007,08:41:44,11.826,-42.788,381.41,385.55,1011.49,1011.82,25.80,25.67,36.35,10.61,268.69,33.60,1011.49,92.50,11.60,355.00,14.48,365.39,2,371.52,2,-6.13,0.74,8.58,79.98,25.58
AOML_Brown,RB200703,126.366,06052007,08:46:24,11.825,-42.772,381.61,385.55,1011.58,1011.84,25.80,25.67,36.35,10.47,272.94,33.65,1011.58,93.60,12.00,356.80,12.38,365.61,2,371.52,2,-5.91,0.73,6.18,86.68,25.62
AOML_Brown,RB200703,126.369,06052007,08:50:44,11.824,-42.757,381.81,385.55,1011.46,1011.99,25.81,25.68,36.35,10.90,276.77,33.47,1011.46,93.30,12.00,346.60,12.79,365.68,2,371.52,2,-5.84,0.73,7.13,65.46,25.53
AOML_Brown,RB200703,126.372,06052007,08:55:24,11.823,-42.742,381.88,385.55,1011.56,1011.96,25.80,25.69,36.35,10.43,277.12,33.21,1011.56,95.20,11.90,350.10,13.68,366.04,2,371.52,2,-5.48,0.74,8.06,74.47,25.43
AOML_Brown,RB200703,126.383,06052007,09:11:44,11.819,-42.687,380.47,385.14,1011.65,1011.95,25.87,25.77,36.37,10.75,268.34,33.23,1011.65,94.10,11.80,350.60,13.58,364.91,2,371.01,2,-6.11,0.75,7.05,73.93,25.18